EHI
0 0 0 0 0 0 0 0 0 1 0 0 0 0 0 0 0 0 0 0 0 0 0 0 0 0 0 0 0 0 0 0 0 0 0 0 0 0 0 0 0 0 0
0 0 0 0 0 0 0 0 0 1 0 0 0 0 0 0 0 0 0 0 0 0 0 0 0 0 0 0 0 0 0 0 0 0 0 0 0 0 0 0 0 0 0
0 0 0 0 0 0 0 0 0 0 0 0 0 0 0 0 0 0 0 0 0 0 0 0 0 0 0 0 0 0 0 0 0 0 0 0 0 0 0 0 0 0 0
0 0 0 0 0 0 0 0 0 0 0 0 0 0 0 0 0 0 0 0 0 0 0 0 0 0 0 0 0 0 0 0 0 0 0 0 0 0 0 0 0 0 0
0 0 0 0 0 0 0 0 0 0 0 0 0 0 0 0 0 0 0 0 0 0 0 0 0 0 0 0 0 0 0 0 0 0 0 0 0 0 0 0 0 0 1
0 0 0 0 0 0 0 0 0 0 0 0 0 0 0 0 0 0 0 0 0 0 0 0 0 0 0 0 0 0 0 0 0 0 0 0 1 1 1 0 0 0 1
0 0 0 0 0 0 0 0 0 0 0 0 0 0 0 0 0 0 0 0 0 0 0 0 0 0 0 0 0 0 0 0 0 0 0 0 1 1 1 0 0 0 1
0 0 0 0 0 0 0 0 0 0 0 0 0 0 0 0 0 0 0 0 0 0 0 0 0 0 0 0 0 0 0 0 0 0 0 1 2 2 0 0 0 0 0
0 0 0 0 0 0 0 0 0 0 0 0 0 0 0 0 0 0 0 0 0 0 0 0 0 0 0 0 0 0 0 0 0 0 0 2 5 3 0 0 0 0 0
0 0 0 0 0 0 0 0 0 0 0 0 0 0 0 0 0 0 0 0 0 0 0 0 0 0 0 0 0 0 0 0 0 0 0 3 5 3 0 0 0 0 0
0 0 0 0 0 0 0 0 0 0 0 0 0 0 0 0 0 0 0 0 0 0 0 0 0 0 0 0 0 0 0 0 0 0 1 3 3 1 0 0 0 0 0
0 0 0 0 0 0 0 0 0 0 0 0 0 0 0 0 0 0 0 1 0 0 0 0 0 0 0 0 0 1 0 0 0 0 4 7 4 0 0 0 0 0 0
0 0 0 0 0 0 0 0 0 0 1 0 0 0 0 0 0 0 0 0 0 0 0 0 0 0 0 0 0 0 0 0 0 0 5 11 7 1 0 0 0 1 1
0 0 0 0 0 0 0 0 0 0 0 0 0 0 0 0 0 0 0 0 0 0 0 0 0 0 0 0 0 0 0 0 0 0 6 11 7 1 0 0 0 1 1
0 0 0 0 0 0 0 0 0 0 0 0 0 0 0 0 1 1 0 0 0 0 0 0 0 0 0 0 0 0 0 0 0 0 4 10 9 3 0 0 0 0 1
0 0 0 0 0 0 0 0 0 0 0 0 1 1 1 1 2 2 1 1 0 0 0 0 0 0 0 0 0 0 0 0 0 0 1 6 10 7 2 1 0 0 1
0 1 1 0 0 1 2 1 0 0 0 1 2 3 3 3 3 3 3 2 1 1 1 1 0 0 0 0 0 0 1 1 0 0 1 3 6 6 5 3 1 1 2
3 5 5 3 2 4 5 4 3 3 3 4 6 9 9 7 6 6 6 5 3 3 3 2 1 1 2 1 0 0 1 1 1 1 2 2 3 4 4 4 3 2 2
10 14 18 16 13 11 10 10 10 10 10 13 20 25 26 22 18 17 14 10 8 7 6 4 3 4 4 2 1 0 1 1 2 2 2 2 2 2 2 3 4 2 1
21 28 38 42 41 37 33 32 30 26 26 32 39 44 44 42 37 32 25 18 15 14 10 6 5 5 5 4 2 1 1 1 1 2 2 1 1 1 0 1 2 1 1
33 42 55 63 66 69 68 64 58 52 49 51 55 55 54 51 47 41 35 28 25 22 15 8 7 7 5 6 6 4 1 0 1 2 2 1 1 0 0 0 1 1 2
48 54 63 68 72 78 83 81 76 71 66 64 65 63 58 52 46 42 39 35 31 27 20 13 9 8 6 8 10 8 3 0 0 1 2 2 1 0 0 0 1 2 2
56 59 63 67 68 70 72 74 73 71 68 66 69 70 62 53 47 44 39 36 33 29 23 17 12 9 9 11 12 11 6 2 0 0 1 2 2 1 0 0 1 1 1
52 52 57 62 63 62 62 64 65 64 63 65 70 71 65 54 49 44 36 33 31 28 24 20 16 14 13 14 13 10 7 4 2 1 1 1 2 1 0 0 0 0 0
39 38 43 53 57 57 58 61 63 63 64 67 70 71 67 57 48 38 31 30 29 27 26 24 20 17 15 12 9 7 5 4 4 4 2 0 1 1 0 0 0 0 1
25 29 35 46 53 55 56 60 63 66 68 70 72 73 69 60 45 32 28 29 29 28 28 25 19 16 13 8 4 3 3 3 4 4 2 0 0 0 0 0 0 1 1
Wind_Speed
13 17 19 15 13 13 13 13 13 13 13 13 13 12 11 11 10 10 9 8 8 8 8 9 9 9 10 10 10 10 10 10 10 10 10 9 8 8 8 6 5 9 9
16 18 20 16 14 14 13 13 13 12 12 12 12 11 11 10 10 9 8 8 7 7 7 7 8 8 8 8 8 8 8 8 7 7 7 9 8 6 5 2 6 8 8
17 19 19 16 15 14 14 13 13 12 12 12 11 11 10 10 9 9 8 7 7 7 6 6 6 7 7 7 7 7 7 6 6 4 5 6 9 6 4 3 4 6 5
17 17 18 18 16 15 14 13 13 12 11 11 11 10 10 9 9 8 8 7 6 6 6 5 5 5 6 6 5 5 5 4 4 4 6 4 6 9 4 3 4 4 4
16 16 17 19 16 15 14 13 13 12 11 10 10 9 9 9 8 8 7 7 6 5 5 4 4 4 4 4 4 4 4 3 3 9 3 2 2 8 4 4 5 6 6
16 16 18 18 16 15 14 13 12 12 11 10 10 9 9 8 8 8 7 6 5 5 4 4 3 4 4 4 4 4 4 4 7 9 5 6 4 8 5 6 7 8 9
16 15 18 17 16 14 14 13 12 11 11 10 10 9 8 8 7 7 7 6 5 5 4 3 3 3 4 5 5 5 6 6 10 8 6 7 4 6 5 9 10 10 11
14 14 16 16 15 14 13 12 12 11 10 10 9 9 8 8 7 7 7 6 6 5 4 4 4 4 5 5 6 6 7 9 10 9 9 8 4 3 7 11 11 11 12
14 13 14 16 15 14 12 12 11 11 10 9 9 9 8 8 7 7 7 6 6 6 5 5 5 5 6 6 6 7 8 9 11 8 8 7 6 5 10 12 12 12 12
12 12 12 13 13 13 14 13 12 11 10 10 9 9 9 8 9 8 9 8 7 7 7 7 7 8 8 8 9 9 9 10 13 11 7 5 8 7 11 13 13 13 13
12 11 12 12 12 12 12 13 13 12 11 10 11 11 10 10 11 10 10 7 7 8 9 9 10 10 10 12 13 11 10 10 10 7 7 3 6 10 13 13 14 13 13
15 14 12 12 12 11 9 9 10 11 11 11 9 10 10 8 6 7 6 6 9 10 11 12 11 12 13 8 11 13 8 10 8 6 5 8 8 12 14 14 14 14 14
15 14 13 11 10 11 8 7 7 6 7 9 10 9 8 6 6 7 5 7 9 11 10 8 9 8 7 5 5 6 7 6 5 6 4 10 10 12 13 13 13 13 14
14 14 13 12 10 9 8 7 7 6 6 7 8 10 8 6 6 6 5 6 5 5 5 6 5 7 7 7 7 7 7 6 6 5 4 8 10 12 13 13 13 13 13
13 13 12 11 11 10 8 7 7 7 7 8 7 8 9 7 7 6 5 5 7 6 6 6 6 6 6 7 7 7 8 8 8 8 5 9 12 13 14 14 13 13 13
14 13 12 12 11 10 9 8 7 7 6 8 7 9 9 8 7 6 7 7 7 7 6 6 7 6 6 6 7 8 8 9 8 8 8 7 13 14 14 14 14 14 13
13 12 12 12 12 12 11 11 9 8 8 8 8 9 9 10 8 8 8 7 7 7 7 7 8 7 7 7 8 8 8 8 8 8 9 8 7 12 15 14 14 13 13
11 11 11 10 12 12 11 10 9 9 9 8 8 8 10 11 10 8 8 8 7 7 7 6 7 8 7 7 7 7 7 7 9 9 9 8 8 8 9 13 13 13 14
11 10 11 11 11 11 11 9 10 8 8 8 8 8 9 10 10 9 8 7 8 7 7 8 7 6 7 7 8 8 8 8 8 9 10 10 9 8 8 6 11 13 14
10 11 11 10 10 10 9 8 8 9 9 9 8 8 9 8 9 8 7 9 8 7 7 7 8 7 7 7 9 9 9 10 9 9 10 9 7 8 8 7 7 9 13
10 11 11 11 10 9 7 8 7 8 8 9 9 10 9 9 8 7 7 7 7 7 8 9 8 9 7 6 7 9 9 10 9 7 7 7 7 6 6 6 6 6 5
8 9 10 11 10 10 8 7 6 7 7 8 8 8 8 8 8 8 8 7 6 6 9 8 7 7 7 6 6 7 7 7 5 5 5 6 6 6 6 6 5 6 7
4 5 6 8 9 9 9 7 6 6 7 8 8 7 8 8 8 8 8 7 6 6 7 7 6 8 7 6 5 6 6 6 6 5 5 5 5 6 7 6 7 6 7
3 4 5 6 7 7 7 8 10 9 11 11 8 7 7 7 6 6 6 6 6 6 6 7 7 6 7 6 5 6 7 6 6 6 6 4 5 7 7 7 7 6 6
5 5 5 5 6 6 7 8 9 11 11 9 8 9 8 7 7 7 7 6 6 6 6 6 5 6 6 6 5 5 5 5 7 6 8 7 6 6 5 6 6 5 5
6 6 6 6 7 7 7 8 9 12 12 12 10 8 7 6 6 7 7 7 7 7 6 6 6 7 5 5 5 4 5 5 4 5 7 7 7 6 5 4 5 4 3
Wind_Direction
159 147 149 163 159 151 144 139 136 138 143 146 148 149 147 146 144 141 135 127 117 105 95 90 90 94 99 102 103 102 100 100 102 103 103 101 102 105 111 128 164 116 112
152 146 152 162 161 154 147 141 138 138 141 145 148 148 148 148 148 145 142 139 133 120 108 102 100 102 105 107 109 110 109 107 108 110 125 129 116 110 114 105 359 93 128
149 147 157 163 162 157 150 145 143 142 143 145 148 150 151 152 153 152 151 150 146 136 125 117 113 113 114 115 117 120 121 120 116 127 219 167 126 126 127 122 92 119 143
150 152 160 160 164 159 154 150 148 147 147 148 150 152 154 155 157 157 156 156 155 149 143 135 128 125 126 129 130 133 137 141 147 211 222 127 133 126 153 161 162 170 175
152 157 154 162 166 162 158 155 153 151 151 153 154 156 158 160 162 160 157 157 159 157 154 150 146 142 144 150 153 158 167 180 204 243 208 194 155 126 178 201 205 208 207
158 161 152 167 169 167 163 160 159 157 158 159 159 161 163 165 167 166 164 163 165 164 163 160 163 166 173 180 186 193 204 218 239 235 215 227 217 144 202 232 231 224 219
163 161 154 170 172 172 170 167 165 165 165 166 166 167 169 172 174 174 175 177 180 183 185 186 192 199 202 205 209 215 223 232 256 262 245 243 237 142 232 253 250 239 227
165 165 151 168 176 177 177 176 174 174 175 176 176 175 177 179 183 184 185 187 190 195 202 211 217 220 226 228 229 230 232 248 247 251 248 249 197 169 255 264 260 250 236
170 168 160 170 178 182 185 185 184 184 185 187 187 186 189 192 196 198 198 201 205 211 219 228 235 238 238 238 240 241 242 247 265 259 254 250 152 204 254 265 266 258 244
176 176 174 175 178 184 186 189 193 193 195 197 200 200 200 205 210 210 214 204 220 229 237 243 246 248 248 244 240 240 244 247 246 249 244 223 157 226 253 260 264 261 249
185 184 186 179 182 190 192 179 189 196 200 204 205 207 213 220 211 201 216 183 227 243 249 252 252 252 251 238 233 235 239 245 244 247 249 155 180 239 252 256 258 259 254
188 188 193 187 187 193 198 177 199 200 194 211 213 204 214 226 240 243 141 199 240 251 255 250 250 250 245 244 218 213 236 239 258 249 229 168 213 243 252 252 252 253 253
191 191 193 192 195 199 197 194 202 207 196 209 216 217 229 234 226 233 221 203 221 233 244 233 233 245 243 245 258 235 249 265 256 255 224 175 217 242 253 252 248 248 250
196 197 194 193 196 209 212 203 208 212 204 215 206 219 222 225 240 241 241 249 242 237 244 261 257 251 261 262 254 261 264 257 261 266 247 193 223 244 255 255 247 244 245
198 201 198 197 200 204 215 225 219 224 221 219 225 217 233 235 235 239 245 251 258 256 246 246 259 264 263 257 260 262 267 269 266 262 251 206 220 238 252 257 253 246 243
201 202 200 200 202 207 212 220 231 233 226 240 227 226 225 238 241 244 241 241 250 256 264 269 264 261 261 268 268 267 269 273 271 272 272 241 213 224 240 251 254 251 245
205 203 201 203 204 206 217 222 228 232 229 230 230 229 228 236 236 239 248 246 247 251 252 254 262 263 259 259 260 265 263 264 272 274 275 277 261 222 221 235 246 250 247
209 205 205 209 206 209 216 225 233 235 235 232 233 229 226 237 239 240 247 249 250 253 252 252 255 259 262 268 275 278 276 268 264 269 268 263 269 275 236 219 233 245 247
212 211 210 214 215 213 216 220 234 240 244 244 238 236 233 238 242 242 249 255 257 257 255 257 251 254 265 271 275 269 271 274 276 272 276 274 267 264 271 234 218 235 244
215 216 218 214 217 216 216 219 230 236 238 240 243 243 246 245 246 246 250 254 258 258 258 257 265 259 263 270 277 281 277 275 272 272 274 271 268 267 266 275 254 228 223
219 219 219 221 213 213 219 223 227 233 237 240 239 240 241 247 251 249 256 258 254 255 257 257 256 256 256 260 268 272 268 260 258 264 266 278 277 276 275 272 270 281 241
227 227 223 222 221 218 219 223 230 242 247 243 242 240 239 242 247 249 248 252 252 255 257 256 254 256 259 250 264 283 283 272 233 248 263 261 278 284 279 266 267 261 270
250 249 248 244 237 233 231 230 238 237 245 245 238 233 235 240 245 246 251 254 252 250 253 253 250 250 257 258 248 265 284 296 319 275 269 275 283 289 286 283 267 263 260
309 283 271 263 258 251 244 238 238 242 244 243 237 230 226 227 235 239 244 249 249 245 244 245 240 243 247 256 246 244 260 288 289 295 281 281 288 284 289 290 289 275 264
336 319 301 289 278 267 259 253 251 253 253 251 242 235 223 213 209 214 220 226 235 240 239 242 241 242 242 252 259 258 259 257 254 270 290 302 298 291 292 290 288 290 292
331 325 318 307 295 281 270 265 256 257 258 255 243 229 215 204 201 202 207 210 218 223 222 223 230 232 244 250 260 256 259 267 277 275 286 299 303 306 308 301 294 301 302